FENGYUN 1C DEB, 31253

Orbit data source: Space-Track

FENGYUN 1C DEB, 31253 is space debris in SSO originally from a launch on Mon, 10 May 1999 UTC launched from the Taiyaun Space Center, China (TSC). Fengyun 1C debris stems from the Chinese weather satellite Fengyun-1C, which was intentionally destroyed by a Chinese anti-satellite missile in 2007. This event dramatically increased the amount of space debris, with thousands of trackable fragments posing hazards to satellites and human spaceflight. The Fengyun 1C debris cloud has become a focal point in discussions about space sustainability and the need for international regulations to prevent the creation of new debris.

Loading next visibility...
Identifier
31253, 1999-025BMK
Orbit
SSO
Country
Flag of CNCN / PRC
Related business
Manufacturer
Unknown
Mission
Spacecraft
Bus & Motor
Unknown
Mass
Unknown
Launch date (UTC)
1999-05-10 (27 years ago)
Launch vehicle
Unknown
Launch site
Taiyaun Space Center, China (TSC)
Object type
Payload
Rocket body
Debris
Shape & HBR
Unknown shape, 0.1 m
Radar Cross Section
Small (<0.1 m²)

Expand to show TLE details & history
Last TLE update: 1 week ago

TLE from 1 week ago
0 FENGYUN 1C DEB
1 31253U 99025BMK 26226.14983132 -.00000022  00000-0  10382-4 0  9991
2 31253  99.0482 295.7099 0290065 131.3208 231.3316 14.03871837724272
Epoch: 2026-08-14T03:35Z
TLE epoch observation values (Epoch: 2026-08-14T03:35:45.426Z)
Latitude
0.00006°
Longitude
-80.80858°
Altitude
1,018.506 km
Speed
7.274 km/s
True Right ascension
19h 42m 50s
True Declination
0° 00' 00"
Sunlit
Object was in full shadow at epoch
Visualization orbit readout
Latitude
Unknown
Longitude
Unknown
Altitude
Unknown
Speed
Unknown
Apparent Right ascension
Unknown
Apparent Declination
Unknown
Sunlit
N/A
Visualization observer readout
Local Sidereal Time
02:00:25
Azimuth
Unknown
Elevation
Unknown
Doppler factor
Unknown
Orbital elements
Apogee altitude
1,088.075 km
Perigee altitude
667.148 km
Semi-major axis
7,255.749 km
Eccentricity
0.02901
Inclination
99.0482°
RAAN
295.7099°
Arg. of periapsis
131.3208°
True anomaly
228.79475°
Mean anomaly
231.3316°
Eccentric anomaly
230.0574°
Mean motion
3.51172 °/min
Orbital period
102.51 mins
BSTAR
0.000010382
Loading maneuver chart data...
Computing Atmospheric mass density...

Documentation

Showing up to 5 results
|